Regional Weather Roundup
Issued by NWS

Home | Current Version | Previous Version | Graphics & Text | Print | Product List | Glossary On
Versions: 1 2 3 4 5 6 7 8 9 10 11 12 13 14 15 16 17 18 19 20 21 22 23 24 25 26 27 28 29 30 31 32 33 34 35 36 37 38 39 40 41 42 43 44 45 46 47 48 49 50
915
ASUS45 KCYS 121010
RWRWY

WYOMING REGIONAL WEATHER ROUNDUP
NATIONAL WEATHER SERVICE CHEYENNE WY
300 AM MST FRI FEB 12 2016

NOTE:  "FAIR" INDICATES FEW OR NO CLOUDS BELOW 12,000 FEET
WITH NO SIGNIFICANT WEATHER AND/OR OBSTRUCTIONS TO VISIBILITY.

WYZ001-121100-
YELLOWSTONE NATIONAL PARK

CITY           SKY/WX    TMP DP  RH WIND       PRES   REMARKS
LK YELLOWSTONE   N/A     29  27  92 CALM      30.36R
W YELLOWSTONE  NOT AVBL

$$
WYZ002>013-054>058-071-098>099-121100-
NORTHERN WYOMING

CITY           SKY/WX    TMP DP  RH WIND       PRES   REMARKS
JACKSON        CLOUDY    30  28  93 NE7       30.36R WCI  23
CODY           FAIR      34  18  51 CALM      30.24S
GREYBULL       CLOUDY    37  29  72 CALM      30.24R
WORLAND        CLOUDY    34  28  79 S3        30.24R
SHERIDAN       FAIR      30  23  75 CALM      30.28R
BUFFALO        FAIR      35  24  64 W8        30.27R WCI  29
GILLETTE       FAIR      24  21  88 CALM      30.27R
HULETT         CLOUDY    32  28  86 NW10      30.29R WCI  24
NEWCASTLE      FAIR      32  28  86 N12       30.25R WCI  23

$$
WYZ014>020-022>026-101>103-121100-
CENTRAL WYOMING

CITY           SKY/WX    TMP DP  RH WIND       PRES   REMARKS
BIG PINEY      FAIR      23  19  85 E3        30.37S
PINEDALE         N/A     23  21  93 W6        30.37S WCI  16
DUBOIS         FAIR      36  30  80 NW17      30.28R WCI  25
LANDER         FAIR      33  24  69 W7        30.24R WCI  27
RIVERTON       CLOUDY    34  26  72 N8        30.26R WCI  27
CASPER         CLOUDY    36  25  64 W7        30.25R WCI  30
DOUGLAS        FAIR      29  25  85 N6        30.27R WCI  23

$$
WYZ021-027>030-104>119-121100-
SOUTHERN WYOMING

CITY           SKY/WX    TMP DP  RH WIND       PRES   REMARKS
EVANSTON       FAIR      33  14  45 S8        30.39R WCI  26
FORT BRIDGER   SUNNY     32  19  59 SW8       30.41R WCI  25
ROCK SPRINGS   FAIR      32  18  56 SW12      30.36S WCI  23
DIXON          FAIR      24  16  71 CALM      30.42R
RAWLINS        CLOUDY    35  21  56 SW13      30.33R WCI  26
SARATOGA       CLOUDY    32  23  69 CALM      30.35R
LARAMIE        FAIR      34  22  61 W6        30.28S WCI  29
CHEYENNE       CLOUDY    32  24  72 CALM      30.26S
TORRINGTON     FAIR      33  26  75 NW5       30.25R WCI  29
PINE BLUFFS    FAIR      32  27  80 W5        30.27S WCI  27

$$




USA.gov is the U.S. government's official web portal to all federal, state and local government web resources and services.